Regional Weather Roundup
Issued by NWS Upton, NY

Current Version | Previous Version | Text Only | Print | Product List | Glossary On
Versions: 1 2 3 4 5 6 7 8 9 10 11 12 13 14 15 16 17 18 19 20 21 22 23 24 25 26 27 28 29 30 31 32 33 34 35 36 37 38 39 40 41 42 43 44 45 46 47 48 49 50
000
ASUS41 KOKX 271809
RWROKX

REGIONAL WEATHER ROUNDUP
NATIONAL WEATHER SERVICE NEW YORK NY
200 PM EDT THU JUL 27 2017

NOTE: "FAIR" INDICATES FEW OR NO CLOUDS BELOW 12,000 FEET WITH NO
SIGNIFICANT WEATHER AND/OR OBSTRUCTIONS TO VISIBILITY.

NYZ071-072-176-178-NJZ106-104-271900-
NEW YORK CITY METRO AREA

CITY           SKY/WX    TMP DP  RH WIND       PRES   REMARKS
Central Park   CLOUDY    77  67  71 W5        29.98F
Bronx Bot Gard   N/A     77  64  65 NW9       29.95F
LaGuardia APRT CLOUDY    77  68  73 S12       29.94F
Kennedy INTL   PTSUNNY   77  69  76 S9        29.97F
Breezy Point     N/A     73 N/A N/A S10         N/A
Newark/Liberty CLOUDY    78  67  68 W7        29.94F
Teterboro      LGT RAIN  78  67  68 VRB5      29.93F
$$

NYZ177-179-078>081-271900-
LONG ISLAND NEW YORK

CITY           SKY/WX    TMP DP  RH WIND       PRES   REMARKS
Jones Beach      N/A     73 N/A N/A S8G14       N/A
Matinecock PT    N/A     75 N/A N/A SW6         N/A
Farmingdale    CLOUDY    76  66  71 S9        29.96F
MacArthur/ISP  CLOUDY    76  64  66 S12       29.96F
Shirley        MOSUNNY   76  64  66 S12       29.97F
Mt Sinai Harb    N/A    N/A N/A N/A NE2         N/A
Westhampton    MOSUNNY   76  60  57 SW13      29.99F
East Hampton   FAIR      73  62  69 S12       29.97F
Montauk          N/A     73  64  73 S7        29.99F
$$

NYZ052-065-067-271900-
HUDSON VALLEY

CITY           SKY/WX    TMP DP  RH WIND       PRES   REMARKS
White Plains   CLOUDY    75  66  73 SW3       29.95F
Larchmont Harb   N/A     73 N/A N/A S9          N/A
Croton O-T Hud   N/A     73 N/A N/A S1          N/A
Newburgh       CLOUDY    73  68  83 CALM      29.96F
Montgomery     CLOUDY    74  67  78 SW6       29.94F
Poughkeepsie   CLOUDY    73  65  75 SW3       29.93F
Albany         LGT RAIN  67  65  93 S7        29.94S FOG
$$

NJZ001-105-106-008-010-013-015-019>022-104-271900-
NEW JERSEY

CITY           SKY/WX    TMP DP  RH WIND       PRES   REMARKS
Newark/Liberty CLOUDY    78  67  68 W7        29.94F
Teterboro      LGT RAIN  78  67  68 VRB5      29.93F
Caldwell       LGT RAIN  75  69  81 VRB5      29.96F
Somerville     CLOUDY    76  69  79 CALM      29.94F
Linden         CLOUDY    78  67  69 CALM      29.95F
Perth Amboy      N/A     77 N/A N/A W8          N/A
Sussex         PTSUNNY   74  68  81 SW6       29.95F
Andover          N/A     72  67  84 SW6       29.97F
Trenton        CLOUDY    78  69  73 SW8       29.95F
Millville      CLOUDY    78  72  81 S9        29.95F
Atlantic City  CLOUDY    79  67  66 S10       29.96F
Wrightstown    PTSUNNY   80  69  69 SW12      29.93F
Toms River     PTSUNNY   80  70  71 SW9       29.96F
Belmar         CLOUDY    77  69  76 S6        29.97F
$$

PAZ047>061-062-071-271900-
EASTERN PENNSYLVANIA

CITY           SKY/WX    TMP DP  RH WIND       PRES   REMARKS
Philadelphia   CLOUDY    78  69  73 S6        29.95F
Allentown      CLOUDY    75  67  76 SW3       29.96F
Scranton       PTSUNNY   77  68  73 W9        29.97S
$$

CTZ002-004>006-009-010-012-RIZ004-006-007-MAZ004-011-015-271900-
SOUTHERN NEW ENGLAND
 IN CT

CITY           SKY/WX    TMP DP  RH WIND       PRES   REMARKS
Bradley INTL   LGT RAIN  70  67  90 SE5       29.95F
Hartford       LGT RAIN  70  64  81 S6        29.94F
Danbury        CLOUDY    72  66  81 SW8       29.97F
Wtrbury/Oxford LGT RAIN  70  63  78 VRB5      29.98F
Bridgeport     CLOUDY    76  63  64 SW7       29.95F
Meriden        LGT RAIN  71  63  75 S6        29.95F
New Haven      CLOUDY    74  62  66 S7        29.95F
Chester        MOCLDY    72  63  73 SW7G13    29.97F
Groton         CLOUDY    71  63  75 S6        29.96F
Wilimantic     LGT RAIN  70  66  87 CALM      29.96F

 IN RI

CITY           SKY/WX    TMP DP  RH WIND       PRES   REMARKS
Providence     LGT RAIN  73  64  73 S3        29.97F
Block Island   CLOUDY    73  62  68 SW13      29.99F
Westerly       PTSUNNY   73  63  70 S9        29.98F
 IN MA

CITY           SKY/WX    TMP DP  RH WIND       PRES   REMARKS
Boston         LGT RAIN  71  63  75 SW15      29.94S
Worcester      LGT RAIN  65  62  90 SW8       29.97F
Westfield      CLOUDY    70  67  90 S6        29.94F
Provincetown   LGT RAIN  68  61  78 SW13      29.97F
Nantucket      MOSUNNY   67  62  84 S14       30.00F
$$

ANZ330-335-338-340-345-350-353-355-271900-
COASTAL MARINE OBSERVATIONS


STATION/POSITION TIME  SKY/WX   TEMP    WIND        PRES    VSBY  WAVE
                                AIR SEA DIR/SP/G                  HT/PER
                 (UTC)          (F)     (DEG/KT/KT) (MB)    (MI)  (FT/S)
NY HARB ENTRANCE 1650            72 74  180/ 12/ 14 1014.8          2/ 8
20 S FIRE ISLAND 1750            72 74  190/ 10/ 12 1014.7          2/ 8
GREAT SOUTH BAY  1730            71 76  210/  8/ 10   N/A
23 SSW MONTAUK P 1650            70 73              1016.3          2/ 8
15 E BARNEGAT LI 1730               74                N/A           2/ 7
HUDSON CANYON    1650            71 72  200/  6/  8 1015.7          2/ 8
KINGS POINT      1742            75 72  240/  6/  8 1014.1
EXECUTION ROCKS  1730            76     180/  6/  8   N/A
CENTRAL LI SOUND NOT AVBL
EASTERN LI SOUND NOT AVBL
ROBBINS REEF     1736                   170/ 11/ 12 1014.9
$$


>>>>>>>>>>>>>>>>>>>>>>>>>>>> KEY <<<<<<<<<<<<<<<<<<<<<<<<<<<
>                                                          <
>     SKY/WX - Sky Condition/Present Weather               <
>     TMP    - Temperature in Fahrenheit                   <
>     DP     - Dew Point in Fahrenheit                     <
>     RH     - Relative Humidity in Percent                <
>     WIND   - Direction (from) and Speed in MPH           <
>     PRES   - Mean Sea Level Pressure (inches of Hg)      <
>     WCI    - Wind Chill Index                            <
>     VSB    - VISIBILITY IN MILES                         <
>     HX     - HEAT INDEX                                  <
>     TC     - TEMPERATURE IN CELSIUS                      <
>     VRB    - VARIABLE WIND DIRECTION                     <
>                                                          <
>>>>>>>>>>>>>>>>>>>>>>>>>>>> KEY <<<<<<<<<<<<<<<<<<<<<<<<<<<



USA.gov is the U.S. government's official web portal to all federal, state and local government web resources and services.